Regional Weather Roundup
Issued by NWS

Home | Current Version | Previous Version | Graphics & Text | Print | Product List | Glossary On
Versions: 1 2 3 4 5 6 7 8 9 10 11 12 13 14 15 16 17 18 19 20 21 22 23 24 25 26 27 28 29 30 31 32 33 34 35 36 37 38 39 40 41 42 43 44 45 46 47 48 49 50
000
ASUS45 KSLC 210210
RWRUT

UTAH REGIONAL WEATHER ROUNDUP
NATIONAL WEATHER SERVICE SALT LAKE CITY UT
700 PM MST TUE FEB 20 2018

UTZ001>011-023>025-210300-

NORTHERN UTAH

CITY           SKY/WX    TMP DP  RH WIND       PRES   REMARKS
BRIGHAM CITY   PTCLDY    20   5  52 CALM      30.15R
HILL AFB       CLEAR     16   4  59 SE5       30.11S WCI   9
LOGAN          PTCLDY    17   6  62 CALM      30.13R
OGDEN          PTCLDY    19   6  57 S5        30.12R WCI  12
SALT LAKE CITY PTCLDY    22  10  60 W3        30.14S
TOOELE VALLEY  PTCLDY    10   5  79 S7        30.15R WCI   0
WENDOVER       MOCLDY    26  11  52 S12       30.10R WCI  16
HEBER CITY       N/A     14   3  62 SE6       30.06R WCI   5
WEST JORDAN    MOCLDY    14  12  92 SW8       30.14R WCI   2

$$

UTZ011>015-024>027-210300-

CENTRAL/NORTHEAST UTAH

CITY           SKY/WX    TMP DP  RH WIND       PRES   REMARKS
PROVO AIRPORT  PTCLDY    20   9  62 S7        30.15R WCI  11
MOAB/CANYONLAN PTCLDY    29   0  28 SW7       30.04R WCI  22
DELTA          CLEAR     18  14  86 E5        30.11S WCI  11
PRICE          PTCLDY    19  -4  36 NW9       30.02R WCI   8
RICHFIELD      CLEAR     21  10  63 NE6       30.08R WCI  14
VERNAL         PTCLDY    10   3  73 NW5       30.08R WCI   2

$$

UTZ013>016-019>022-027-210300-

SOUTHERN UTAH

CITY           SKY/WX    TMP DP  RH WIND       PRES   REMARKS
BRYCE CANYON   PTCLDY    11  -1  58 NW7       29.98R WCI   0
CEDAR CITY     PTCLDY    14   8  77 E3        30.01S
MILFORD        CLEAR     10   7  87 N6        30.07R WCI   0
ST GEORGE      PTCLDY    39   3  22 SW6       30.10R WCI  35
HANKSVILLE     PTCLDY    32   5  32 CALM      30.07S
KANAB          CLEAR     27  -2  28 CALM      30.10R
BLANDING         N/A     24   4  42 CALM      30.11R

$$

REGIONAL REPORTS     COLORADO/ARIZONA

CITY           SKY/WX    TMP DP  RH WIND       PRES   REMARKS
CRAIG, CO      PTCLDY     3  -4  72 CALM      30.07R
GRAND JUNCTION PTCLDY    28  17  63 SE9       30.07R WCI  19
RIFLE, CO      PTCLDY    20   9  62 SW8       30.07R WCI  10
MONTROSE, CO   MOCLDY    20  19  96 SW5       30.11R WCI  13
CORTEZ, CO     PTCLDY    21  11  65 E6        30.05R WCI  13
COLORADO CITY    N/A     30   3  31 NW3       30.08S
PAGE, AZ       CLEAR     35   7  31 CALM      30.05R
GRAND CANYON   CLEAR     16   6  65 CALM      30.03R
KINGMAN, AZ    CLEAR     36  -1  21 N6        30.07R WCI  31
FLAGSTAFF, AZ  CLEAR     24  -2  32 S5        30.00R WCI  18

$$

REGIONAL REPORTS    NEVADA/IDAHO/WYOMING

CITY           SKY/WX    TMP DP  RH WIND       PRES   REMARKS
LAS VEGAS, NV  PTCLDY    45   2  17 E8        30.09R
ELY, NY        CLEAR     14   2  58 CALM      29.99R
ELKO, NV       CLEAR     16   3  56 SW5       30.05S WCI   9
POCATELLO, ID  PTCLDY     6  -2  69 S9        30.12R WCI  -8
BURLEY, ID     CLEAR     15   6  67 E3        30.10R
FORT BRIDGER,    N/A      7  -1  71 W7        30.02R WCI  -5
EVANSTON, WY   CLEAR      5   0  79 SE6       29.99R WCI  -6
ROCK SPRINGS,  CLEAR      5  -2  72 SW8       30.01R WCI  -8

$$



USA.gov is the U.S. government's official web portal to all federal, state and local government web resources and services.